Location: Cheyres
(46.8153°N, 6.7877°E)
Time: 04:42:59
(UTC+00:00)

N. Korean satellite - Pass Details

Date: 23 January 2022
Orbit: 438 x 478 km, 97.3° (Epoch: 21 May)

Event Time Altitude Azimuth Distance (km) Brightness Sun altitude
Rises 04:08:00 0° 23° (NNE) 2,629 10.6 -30.5°
Reaches altitude 10° 04:10:22 10° 36° (NE) 1,742 9.8 -30.1°
Maximum altitude 04:13:34 26° 95° (E) 1,035 8.8 -29.5°
Enters shadow 04:15:20 19° 136° (SE) 1,288 9.1 -29.2°
Exits shadow 04:17:23 - 158° (SSE) 1,957 9.8 -28.9°
Sets 04:19:05 0° 166° (SSE) 2,608 10.4 -28.6°
